Home > Weather > Gustavia > Past weeks

Past Weather in Gustavia, Saint Barthélemy — Yesterday and Last 2 Weeks

Now
82 °F

Passing clouds.


Feels Like: 92 °F
Forecast: 82 / 87 °F
Wind: 7 mph from East

Location: Juliana Airport - Saint Maarten

Current Time: Jul 27, 2016 at 1:51:59 AM

Latest Report: Jul 27, 2016 at 1:00 AM


Visibility: N/A

Pressure: 30.01 "Hg

Humidity: 89%

Dew Point: 79 °F

Location of GustaviaLocation

Past Weather in Gustavia — Graph

°F

Gustavia Temperature Yesterday

Maximum temperature yesterday: 88 °F (at 1:00 PM)
Minimum temperature yesterday: 81 °F (at 2:00 AM)
Average temperature yesterday: 84 °F

High & Low Weather Summary for the Past Weeks

 TemperatureHumidityPressure
High90 °F (Jul 17, 1:00 PM)94% (Jul 13, 3:00 AM)30.07 "Hg (Jul 13, 3:00 AM)
Low77 °F (Jul 13, 6:00 AM)55% (Jul 22, 2:00 PM)29.95 "Hg (Jul 15, 4:00 PM)
Average84 °F76%30.02 "Hg
* Reported Jul 12 12:00 AM — Jul 27 12:00 AM, Gustavia, Weather by CustomWeather, © 2016

Note: Actual official high and low records may vary slightly from our data, if they occured in-between our weather recording intervals... More about our weather records

Advertising

Gustavia Weather History for the Previous 24 Hours

Scroll right to see more
 ConditionsComfort  
Time TempWeatherWind HumidityBarometerVisibility
12:00 AM
Wed, Jul 27
84 °FPassing clouds.10 mph84%30.01 "HgN/A
11:00 PM
Tue, Jul 26
84 °FPassing clouds.9 mph84%30.04 "HgN/A
10:00 PM84 °FPassing clouds.10 mph84%30.01 "HgN/A
9:00 PM84 °FPassing clouds.9 mph84%30.01 "HgN/A
8:00 PM84 °FPassing clouds.13 mph79%29.98 "HgN/A
7:00 PM84 °FPassing clouds.13 mph79%29.98 "HgN/A
6:00 PM86 °FPassing clouds.14 mph75%29.95 "HgN/A
5:00 PM86 °FPassing clouds.14 mph75%29.95 "HgN/A
4:00 PM86 °FScattered clouds.14 mph75%29.95 "HgN/A
3:00 PM88 °FScattered clouds.13 mph70%29.98 "HgN/A
2:00 PM88 °FScattered clouds.12 mph70%29.98 "HgN/A
1:00 PM88 °FScattered clouds.10 mph70%30.01 "HgN/A
12:00 PM86 °FScattered clouds.13 mph70%30.01 "HgN/A
11:00 AM86 °FPartly sunny.12 mph75%30.01 "HgN/A
10:00 AM86 °FScattered clouds.10 mph75%30.01 "HgN/A
9:00 AM86 °FPassing clouds.12 mph75%30.01 "HgN/A
8:00 AM84 °FPartly sunny.10 mph79%30.01 "HgN/A
7:00 AM82 °FScattered clouds.10 mph84%29.98 "HgN/A
6:00 AM82 °FScattered clouds.10 mph84%29.98 "HgN/A
5:00 AM82 °FPassing clouds.10 mph84%29.95 "HgN/A
4:00 AM82 °FSprinkles. Passing clouds.10 mph84%29.98 "Hg5 mi
3:00 AM82 °FPassing clouds.9 mph84%29.95 "HgN/A
2:00 AM81 °FSprinkles. Passing clouds.9 mph89%29.98 "HgN/A
1:00 AM82 °FPassing clouds.12 mph89%29.98 "HgN/A
Weather by CustomWeather, © 2016

See weather overviewHow to use our weather pages